Location: Cabeza de los Veneras
(40.2000°N, 5.2000°W)
Time: 04:55:49
(UTC+00:00)

BlueWalker 3 - Visible Passes

Search period start: 24 June 2024 00:00
Search period end: 04 July 2024 00:00
Orbit: 480 x 493 km, 53.2° (Epoch: 23 June)

Date Brightness Start Highest point End Pass type
(mag) Time Alt. Az. Time Alt. Az. Time Alt. Az.
24 Jun 4.6 00:35:59 10° NNW 00:38:39 18° NNE 00:41:20 10° ENE visible
24 Jun 1.8 02:13:32 10° NW 02:17:18 83° NE 02:18:30 41° ESE visible
24 Jun 4.8 20:51:20 10° WNW 20:54:07 19° NNW 20:56:54 10° NNE visible
24 Jun 5.2 22:32:20 10° NNW 22:33:29 11° N 22:34:38 10° NNE visible
25 Jun 4.6 00:10:17 10° NNW 00:12:54 18° NNE 00:15:30 10° ENE visible
25 Jun 2.6 01:47:49 10° NW 01:50:35 47° NW 01:50:35 47° NW visible
25 Jun 4.7 20:25:30 10° WNW 20:28:21 20° NNW 20:31:12 10° NNE visible
25 Jun 5.1 22:06:32 10° NNW 22:07:42 11° N 22:08:52 10° NNE visible
25 Jun 4.7 23:44:35 10° NNW 23:47:07 17° NNE 23:49:39 10° ENE visible
26 Jun 3.3 01:22:05 10° NW 01:24:13 32° NW 01:24:13 32° NW visible
26 Jun 5.1 21:40:42 10° NNW 21:41:55 11° N 21:43:06 10° NNE visible
26 Jun 4.6 23:18:53 10° NNW 23:21:21 16° NNE 23:23:48 10° ENE visible
27 Jun 3.6 00:56:21 10° NW 00:58:21 29° NW 00:58:21 29° NW visible
27 Jun 5.0 21:14:52 10° NNW 21:16:06 11° N 21:17:21 10° NNE visible
27 Jun 4.6 22:53:10 10° NNW 22:55:33 16° NNE 22:57:57 10° ENE visible
28 Jun 3.5 00:30:38 10° NW 00:32:43 30° NNW 00:32:43 30° NNW visible
28 Jun 4.9 20:49:01 10° NNW 20:50:18 11° N 20:51:34 10° NNE visible
28 Jun 4.6 22:27:26 10° NNW 22:29:46 15° NNE 22:32:05 10° NE visible
29 Jun 3.4 00:04:52 10° NW 00:07:14 34° NNW 00:07:14 34° NNW visible
29 Jun 4.6 22:01:42 10° NNW 22:03:57 15° NNE 22:06:12 10° NE visible
29 Jun 3.1 23:39:07 10° NW 23:41:51 40° NNW 23:41:51 40° NNW visible
30 Jun 4.6 21:35:57 10° NNW 21:38:08 15° NNE 21:40:18 10° NE visible
30 Jun 2.8 23:13:22 10° NW 23:16:33 46° N 23:16:33 46° N visible
01 Jul 4.5 21:10:12 10° NNW 21:12:19 14° NNE 21:14:25 10° NE visible
01 Jul 2.6 22:47:36 10° NW 22:51:13 46° NE 22:51:18 46° NE visible
02 Jul 4.5 20:44:26 10° NNW 20:46:29 14° NNE 20:48:31 10° NE visible
02 Jul 2.7 22:21:50 10° NW 22:25:25 43° NNE 22:26:06 38° ENE visible
03 Jul 4.7 00:00:22 10° WNW 00:00:26 10° WNW 00:00:26 10° WNW visible
03 Jul 2.8 21:56:03 10° NW 21:59:36 40° NNE 22:00:58 28° E visible
03 Jul 4.4 23:34:29 10° WNW 23:35:17 14° W 23:35:17 14° W visible
